TimeCDT,TemperatureF,Dew PointF,Humidity,Sea Level PressureIn,VisibilityMPH,Wind Direction,Wind SpeedMPH,Gust SpeedMPH,PrecipitationIn,Events,Conditions,WindDirDegrees,DateUTC
12:50 AM,75,55,39,29.59,6,NNW,2.2,,,,,340,2013-04-24 05:50:00
3:52 AM,72,48,31,29.64,6,NW,2.2,,,,Clear,320,2013-04-24 08:52:00
5:40 AM,66.2,44.6,46,29.96,10.0,Calm,Calm,-,N/A,,Scattered Clouds,0,2013-04-24 10:40:00
6:40 AM,66.2,50.0,56,29.68,10.0,Calm,Calm,-,N/A,,Scattered Clouds,0,2013-04-24 11:40:00
6:56 AM,69,59,64,29.75,6,NW,4.5,,,,Clear,320,2013-04-24 11:56:00
7:41 AM,66.2,51.8,60,30.01,8.0,Calm,Calm,-,N/A,,Scattered Clouds,0,2013-04-24 12:41:00
8:43 AM,68.0,55.4,64,30.04,7.0,Calm,Calm,-,N/A,,Scattered Clouds,0,2013-04-24 13:43:00
9:42 AM,71.6,55.4,57,29.77,7.0,Calm,Calm,-,N/A,,Partly Cloudy,0,2013-04-24 14:42:00
9:50 AM,73,63,63,29.85,19,West,2.2,,,,,270,2013-04-24 14:50:00
10:40 AM,73.4,55.4,53,30.08,7.0,ENE,4.6,-,N/A,,Partly Cloudy,60,2013-04-24 15:40:00
11:41 AM,77.0,53.6,44,30.08,6.0,South,6.9,-,N/A,,Partly Cloudy,190,2013-04-24 16:41:00
12:40 PM,80.6,51.8,37,29.79,8.0,Calm,Calm,-,N/A,,Partly Cloudy,0,2013-04-24 17:40:00
12:50 PM,85,64,39,29.84,19,East,4.5,,,,,90,2013-04-24 17:50:00
1:43 PM,84.2,50.0,30,30.04,8.0,East,4.6,-,N/A,,Partly Cloudy,80,2013-04-24 18:43:00
2:45 PM,86.0,46.4,25,30.00,7.0,WNW,3.5,-,N/A,,Clear,300,2013-04-24 19:45:00
3:40 PM,87.8,46.4,24,29.69,7.0,SE,4.6,-,N/A,,Partly Cloudy,140,2013-04-24 20:40:00
3:46 PM,92,65,31,29.73,19,West,2.2,,,,Scattered Clouds,270,2013-04-24 20:46:00
4:47 PM,89.6,41.0,18,29.94,7.0,West,6.9,-,N/A,,Scattered Clouds,260,2013-04-24 21:47:00
5:44 PM,91.4,39.2,16,29.92,10.0,North,5.8,-,N/A,,Scattered Clouds,360,2013-04-24 22:44:00
6:46 PM,93,60,24,29.63,19,NNE,4.5,,,,Clear,20,2013-04-24 23:46:00
6:46 PM,89.6,37.4,16,29.66,10.0,North,9.2,-,N/A,,Partly Cloudy,360,2013-04-24 23:46:00
7:43 PM,87.8,35.6,16,29.93,10.0,North,9.2,-,N/A,,Clear,10,2013-04-25 00:43:00
8:48 PM,82.4,42.8,25,29.96,4.0,NE,4.6,-,N/A,,Clear,40,2013-04-25 01:48:00
9:50 PM,79,57,37,29.70,6,East,8.9,,,,Clear,90,2013-04-25 02:50:00
9:50 PM,77.0,48.2,36,29.75,8.0,NE,9.2,-,N/A,,Clear,50,2013-04-25 02:50:00
10:40 PM,73.4,48.2,41,30.04,8.0,East,9.2,-,N/A,,Partly Cloudy,80,2013-04-25 03:40:00
11:47 PM,71.6,48.2,43,30.08,8.0,East,6.9,-,N/A,,Clear,80,2013-04-25 04:47:00